TimeEST,TemperatureF,Dew PointF,Humidity,Sea Level PressureIn,VisibilityMPH,Wind Direction,Wind SpeedMPH,Gust SpeedMPH,PrecipitationIn,Events,Conditions,WindDirDegrees,DateUTC
12:54 AM,44.1,36.0,73,30.29,10.0,NW,3.5,-,N/A,,Partly Cloudy,310,2012-11-16 05:54:00
1:54 AM,44.1,35.1,71,30.28,10.0,North,6.9,-,N/A,,Mostly Cloudy,350,2012-11-16 06:54:00
2:54 AM,44.1,34.0,68,30.28,10.0,North,5.8,-,N/A,,Partly Cloudy,350,2012-11-16 07:54:00
3:54 AM,44.1,34.0,68,30.27,10.0,North,9.2,-,N/A,,Overcast,350,2012-11-16 08:54:00
4:54 AM,43.0,34.0,71,30.29,10.0,NNW,9.2,-,N/A,,Overcast,340,2012-11-16 09:54:00
5:54 AM,43.0,34.0,71,30.29,10.0,North,5.8,-,N/A,,Overcast,360,2012-11-16 10:54:00
6:54 AM,43.0,34.0,71,30.29,10.0,North,9.2,-,N/A,,Overcast,360,2012-11-16 11:54:00
7:54 AM,44.1,33.1,65,30.32,10.0,NNW,5.8,-,N/A,,Overcast,340,2012-11-16 12:54:00
8:54 AM,45.0,33.1,63,30.32,10.0,North,9.2,-,N/A,,Overcast,360,2012-11-16 13:54:00
12:54 PM,48.9,30.0,48,30.31,10.0,North,11.5,-,N/A,,Overcast,10,2012-11-16 17:54:00
1:54 PM,50.0,28.9,44,30.31,10.0,NNW,11.5,-,N/A,,Overcast,330,2012-11-16 18:54:00
2:54 PM,51.1,28.0,41,30.31,10.0,North,9.2,-,N/A,,Overcast,360,2012-11-16 19:54:00
3:54 PM,51.1,28.0,41,30.33,10.0,NNE,6.9,-,N/A,,Mostly Cloudy,20,2012-11-16 20:54:00
4:54 PM,46.0,27.0,47,30.35,10.0,NNW,5.8,-,N/A,,Clear,340,2012-11-16 21:54:00
5:54 PM,42.1,28.9,60,30.38,10.0,North,3.5,-,N/A,,Clear,360,2012-11-16 22:54:00
6:54 PM,39.0,30.0,70,30.38,10.0,Calm,Calm,-,N/A,,Clear,0,2012-11-16 23:54:00
7:54 PM,37.9,28.9,70,30.40,10.0,Calm,Calm,-,N/A,,Clear,0,2012-11-17 00:54:00
8:54 PM,36.0,28.9,76,30.40,10.0,NNW,4.6,-,N/A,,Clear,330,2012-11-17 01:54:00
9:54 PM,36.0,28.0,73,30.42,10.0,Calm,Calm,-,N/A,,Clear,0,2012-11-17 02:54:00
10:54 PM,35.1,28.0,76,30.41,10.0,Calm,Calm,-,N/A,,Clear,0,2012-11-17 03:54:00
11:54 PM,33.1,28.0,82,30.43,10.0,Calm,Calm,-,N/A,,Clear,0,2012-11-17 04:54:00